OpenBCM V2.0.2 (Linux)

Packet Radio Mailbox

IZ3LSV

[San Dona' di P. JN]

 Login: GUEST





  
OZ1LQH > KEP      20.06.08 22:11l 73 Lines 2986 Bytes #999 (0) @ WW
BID : ARLK047
Read: GUEST
Subj: ARLK047 Keplerian data
Path: IZ3LSV<IK2XDE<I0TVL<ON0AR<PI8ZAA<OZ5BBS
Sent: 080620/2007Z @:OZ5BBS.FYN.DNK.EU #:46390 [Odense] $:ARLK047
From: OZ1LQH@OZ5BBS.FYN.DNK.EU
To  : KEP@WW

ZCZC SK47
QST de W1AW  
Keplerian Bulletin 47  ARLK047
From ARRL Headquarters
Newington, CT  June 20, 2008
To all radio amateurs 

SB KEP ARL ARLK047
ARLK047 Keplerian data

Special thanks to AMSAT-NA (AMSAT.ORG) for the following Keplerian
data.

Decode 2-line elsets with the following key:
1 AAAAAU 00  0  0 BBBBB.BBBBBBBB  .CCCCCCCC  00000-0  00000-0 0  DDDZ
2 AAAAA EEE.EEEE FFF.FFFF GGGGGGG HHH.HHHH III.IIII JJ.JJJJJJJJKKKKKZ
KEY: A-CATALOGNUM B-EPOCHTIME C-DECAY D-ELSETNUM E-INCLINATION F-RAAN
G-ECCENTRICITY H-ARGPERIGEE I-MNANOM J-MNMOTION K-ORBITNUM Z-CHECKSUM

AO-07
1 07530U 74089B   08170.65028065 -.00000027  00000-0  10000-3 0 02066
2 07530 101.4644 202.0976 0011647 259.7821 100.1946 12.53573711537164 
UO-11
1 14781U 84021B   08170.74101097  .00000340  00000-0  52552-4 0  6987
2 14781 098.1539 204.7982 0010167 070.2226 290.0091 14.79649753304085
FO-29
1 24278U 96046B   08170.82235687 -.00000019  00000-0  18393-4 0 08083
2 24278 098.5870 086.8990 0350317 211.2188 146.7718 13.52937899584618
AO-40
1 26609U 00072B   08171.19788136 -.00000101  00000-0  10000-3 0   800
2 26609 007.5896 076.8086 7915974 092.8833 348.8257 01.25584887 35069
VO-52
1 28650U 05017B   08170.82469489  .00000383  00000-0  55156-4 0  9596
2 28650 097.7899 237.3909 0028165 133.8628 226.4931 14.81475284168846
AO-16
1 20439U 90005D   08171.58661013  .00000012  00000-0  19754-4 0  3480
2 20439 098.2296 151.5261 0010941 164.6107 195.5417 14.31796309961266
AO-27
1 22825U 93061C   08170.60084391  .00000007  00000-0  19252-4 0 09973
2 22825 098.3842 130.5693 0007564 255.3075 104.7266 14.29241144767975
IO-26
1 22826U 93061D   08170.93462441  .00000004  00000-0  18101-4 0 07030
2 22826 098.3761 131.7991 0008031 251.9216 108.1111 14.29490142768117
PO-28
1 22829U 93061G   08171.41001182  .00000029  00000-0  27234-4 0  9720
2 22829 098.3646 133.3607 0009001 219.6067 140.4469 14.30191485768448
GO-32
1 25397U 98043D   08170.65730674 -.00000096  00000-0 -24487-4 0 06278
2 25397 098.3637 205.7473 0000584 184.9562 175.1619 14.23144066516423
NO-44
1 26931U 01043C   08171.59450803  .00000073  00000-0  61000-4 0  9069
2 26931 067.0536 278.4535 0006887 272.7489 087.2820 14.29525820350757 
SO-50
1 27607U 02058C   08171.72513984 -.00000025  00000-0  18385-4 0  6313
2 27607 064.5593 045.9327 0085807 279.0917 080.0462 14.71362918295344
CO-55
1 27844U 03031E   08171.54976444  .00000044  00000-0  40703-4 0  3318
2 27844 098.7144 179.7831 0010776 106.2094 254.0283 14.20584481257778
AO-51
1 28375U 04025K   08170.57685690  .00000014  00000-0  16703-4 0  1277
2 28375 098.0704 195.0695 0083914 147.8771 212.7574 14.40611176208605
ISS
1 25544U 98067A   08170.94347382  .00017507  00000-0  10894-3 0 06921
2 25544 051.6427 007.3198 0005894 350.2420 096.0875 15.77053772548801

Keplerian bulletins are transmitted twice weekly from W1AW.  The
next scheduled transmission of these data will be Tuesday, June 24, 
2008, at 2230z on Baudot and AMTOR.
NNNN


Read previous mail | Read next mail


 05.05.2026 00:17:56lGo back Go up